Preview of NWS' New Version of Forecast
This preview is not operational and should not be used for support decisions.

Regional Weather Roundup (RWR)

Issued by National Weather Service (NWS)

                            
000
ASUS42 KTBW 171917
RWRFL 
FLORIDA REGIONAL WEATHER ROUNDUP
NATIONAL WEATHER SERVICE TAMPA BAY RUSKIN FL
200 PM EST SUN FEB 17 2019

NOTE: "FAIR" INDICATES FEW OR NO CLOUDS BELOW 12,000 FEET WITH NO
SIGNIFICANT WEATHER AND/OR OBSTRUCTIONS TO VISIBILITY.

FLZ001>010-012>015-112-114-115-172000-
PANHANDLE FLORIDA
  
CITY           SKY/WX    TMP DP  RH WIND       PRES   REMARKS
PENSACOLA      CLOUDY    73  67  81 S9        29.86F                  
PENSACOLA NAS  CLOUDY    74  70  87 SE10      29.85F                  
MILTON NAS     PTSUNNY   77  70  79 S15       29.85                   
CRESTVIEW      PTSUNNY   77  67  71 S12       29.88F                  
DUKE FIELD     FAIR      75  67  76 S13       29.87F                  
VALPARAISO     PTSUNNY   72  68  88 SE10      29.86F                  
MARY ESTHER    CLOUDY    72  66  82 SE13      29.85                   
PANAMA CITY    PTSUNNY   76  68  76 SE10      29.89F                  
TYNDALL AFB    PTSUNNY   74  69  85 S21       29.89F                  
APALACHICOLA   PTSUNNY   72  66  81 S12       29.92F                  

STATION/POSITION SKY/WX   TEMP    WIND        PRES    WAVE   SWELL
                          AIR SEA DIR/SP/G            HT/PER HT/PER
                          (F)     (DEG/KT/KT) (MB)    (FT/S) (FT/S)
30.1N   87.6W              67     130/ 10/ 10 1010.9F   2/ 6   2/ 6
29.2N   88.2W                     180/ 12/ 14 1010.5F   3/ 5   2/ 6
PANAMA CITY BEAC           66 63  130/ 12/ 13 1012.4F
TOWER C                    68     150/ 13/ 13 1013.2F

$$
FLZ011-016>038-118-127-128-134-139-239-172000-
NORTH FLORIDA
  
CITY           SKY/WX    TMP DP  RH WIND       PRES   REMARKS
MARIANNA       PTSUNNY   80  66  62 S14G23    29.87F                  
TALLAHASSEE    CLOUDY    75  68  78 S8        29.92F                  
PERRY          CLOUDY    79  66  64 SW16      29.95F                  
LIVE OAK       PTSUNNY   77  68  73 VRB3      29.94F                  
CROSS CITY     CLOUDY    78  64  61 SW13G20   29.96F                  
LAKE CITY      PTSUNNY   77  66  69 CALM      29.96F                  
GAINESVILLE    PTSUNNY   85  63  47 SW12G21   29.97F                  
WILLISTON        N/A    N/A N/A N/A MISG        N/A                   
PALATKA        PTSUNNY   82  64  54 S7        29.96R                  
MAYPORT NAS    CLOUDY    68  63  84 SE6       29.97S                  
JACKSONVILLE   CLOUDY    76  66  71 N3        29.95F                  
JAX NAS        CLOUDY    76  66  71 S5        29.97S                  
JAX CECIL      PTSUNNY   79  68  69 VRB5      29.96S                  
FERNANDINA BEA CLOUDY    68  63  83 E9        29.97F                  
ST AUGUSTINE   CLOUDY    73  66  78 SE9       29.98R                  
PALM COAST     PTSUNNY   79  64  61 SE7       29.95F                  

STATION/POSITION SKY/WX   TEMP    WIND        PRES    WAVE   SWELL
                          AIR SEA DIR/SP/G            HT/PER HT/PER
                          (F)     (DEG/KT/KT) (MB)    (FT/S) (FT/S)
SHELL POINT      NOT AVBL
KEATON BEACH               68     170/ 13/ 15 1014.5F
CEDAR KEY                  69     210/  9/ 11 1015.0F
FERNANDINA                 71 62  110/  4/  7 1015.6F
30.7N   81.3W                 61                N/A     2/ 5
MAYPORT                    69 61  130/  7/  9 1014.9S
31.4N   80.9W              60 58   90/  2/  4 1015.7F   3/ 5   3/ 5
ST AUGUSTINE               64 62  140/  3/  3 1015.1R

$$
FLZ040-043>046-052-053-057-058-063-144-172000-
INTERIOR CENTRAL FLORIDA
  
CITY           SKY/WX    TMP DP  RH WIND       PRES   REMARKS
OCALA          PTSUNNY   84  64  50 SW14      29.95F                  
LEESBURG       FAIR      83  63  50 S10       29.95F                  
SANFORD        FAIR      83  64  52 SW12      29.95F                  
ORLANDO EXEC   FAIR      83  64  52 S13G20    29.95F                  
ORLANDO INTL   FAIR      84  64  50 S15       29.96F                  
KISSIMMEE      FAIR      84  65  52 SW14      29.97F                  
WINTER HAVEN   FAIR      87  65  47 SW13      29.97F                  
LAKELAND       PTSUNNY   82  64  54 SW13G20   29.96F                  
BARTOW         PTSUNNY   84  64  51 S12G18    29.95F                  
SEBRING        MOCLDY    84  64  51 S13       29.97F                  
OKEECHOBEE     FAIR      82  64  54 S8G16     29.98F                  

$$
FLZ041-047-054-059-064-141-147-172000-
EAST CENTRAL FLORIDA
  
CITY           SKY/WX    TMP DP  RH WIND       PRES   REMARKS
ORMOND BEACH   MOSUNNY   77  64  65 SE8       29.95F                  
DAYTONA BEACH  PTSUNNY   82  64  54 SW12G20   29.95F                  
DELAND         FAIR      82  63  51 S12G21    29.95F                  
NEW SMYRNA BEA MOSUNNY   81  64  57 SE8       29.96F                  
JFK SPACE CTR  FAIR      82  66  58 S10       29.96F                  
TITUSVILLE     PTSUNNY   82  66  57 SE9       29.97F                  
CAPE CANAVERAL FAIR      77  68  73 SE12      29.96F                  
PATRICK AFB    FAIR      73  69  88 SE10      29.97F                  
MELBOURNE      FAIR      78  66  66 SE12      29.96F                  
VERO BEACH     PTSUNNY   80  66  62 SE12      29.98F                  
FT PIERCE      PTSUNNY   83  66  56 E9        29.97F                  

STATION/POSITION SKY/WX   TEMP    WIND        PRES    WAVE   SWELL
                          AIR SEA DIR/SP/G            HT/PER HT/PER
                          (F)     (DEG/KT/KT) (MB)    (FT/S) (FT/S)
28.5N   80.2W              69     160/  6/  6 1015.7
28.9N   78.5W              75 76  190/ 10/ 10 1016.6F   3/ 8   3/ 8
TRIDENT PIER               72 66  110/  6/  9 1016.2F
28.4N   80.5W                 66                N/A     1/ 8

$$
FLZ050-056-061-142-242-148-248-149-249-151-251-155-255-
160-260-172000-
WEST CENTRAL FLORIDA
  
CITY           SKY/WX    TMP DP  RH WIND       PRES   REMARKS
CRYSTAL RIVER  FAIR      82  64  54 SW9G18    29.96S                  
INVERNESS      PTSUNNY   86  66  51 S10       29.96S                  
BROOKSVILLE    PTSUNNY   84  66  54 S14       29.96F                  
CLEARWATER AIR FAIR      81  66  61 S13G18    29.94F                  
ST PETE CLEARW FAIR      84  67  56 S21G28    29.95F                  
TAMPA INTL     FAIR      81  67  62 S13       29.95F                  
TAMPA EXEC     PTSUNNY   82  66  57 S10G18    29.95F                  
PLANT CITY     PTSUNNY   84  64  51 S13       29.97F                  
MACDILL AFB    FAIR      79  68  68 S17G24    29.94F                  
PETER O KNIGHT CLOUDY    82  70  65 S9        29.95F                  
ST PETERSBURG  FAIR      81  68  64 S17       29.93F                  
SARASOTA       FAIR      82  70  66 MISG      29.94F                  
VENICE         FAIR      81  72  74 S18G28    29.97F                  

STATION/POSITION SKY/WX   TEMP    WIND        PRES    WAVE   SWELL
                          AIR SEA DIR/SP/G            HT/PER HT/PER
                          (F)     (DEG/KT/KT) (MB)    (FT/S) (FT/S)
27.3N   84.2W                 72                N/A     3/ 6
CLEARWATER BEACH           77 67  160/ 19/ 23 1014.2F
MIDDLE TAMPA BAY           76     210/ 15/ 17 1014.4F
VENICE                     73 67  160/ 16/ 17   N/A

$$
FLZ066-069-070-075>078-162-262-165-265-172000-
SOUTHWEST FLORIDA AND KEYS
  
CITY           SKY/WX    TMP DP  RH WIND       PRES   REMARKS
PUNTA GORDA    FAIR      82  65  56 S20G26    29.98F                  
FT MYERS       FAIR      82  65  56 S16G23    29.96F                  
SOUTHWEST INTL FAIR      83  67  58 S14       29.96F                  
NAPLES         FAIR      83  66  56 S16       29.97F                  
IMMOKALEE      FAIR      88  66  48 S9G15     29.95F                  
MARATHON       FAIR      86  71  60 SE12G17   29.99F                  
KEY WEST NAS   FAIR      84  70  62 SE13      29.98F                  
KEY WEST INTL  FAIR      81  70  69 SE14      29.98F                  

STATION/POSITION SKY/WX   TEMP    WIND        PRES    WAVE   SWELL
                          AIR SEA DIR/SP/G            HT/PER HT/PER
                          (F)     (DEG/KT/KT) (MB)    (FT/S) (FT/S)
NAPLES                     76 72  150/ 16/ 20 1014.9F
26.0N   85.6W              79 80  170/ 23/ 27 1011.5
DRY TORTUGAS               77     160/ 11/ 13 1014.9F
SAND KEY                   77                 1015.1F
SOMBRERO KEY               78                 1014.9F
LONG KEY                   78 77  140/ 11/ 12 1015.3F

$$
FLZ067-068-071>074-168-172>174-172000-
SOUTHEAST FLORIDA 
  
CITY           SKY/WX    TMP DP  RH WIND       PRES   REMARKS
W PALM BEACH   PTSUNNY   81  66  60 S15       29.99F                  
BOCA RATON     MOSUNNY   86  68  54 SE14G24   29.99F                  
FT LAUDER-EXEC FAIR      82  68  62 SE17G24   29.99F                  
FT LAUDERDALE  PTSUNNY   82  69  64 S12       29.99F                  
POMPANO BEACH  FAIR      83  68  60 S16G25    29.99F                  
PEMBROKE PINES FAIR      84  66  54 SE15      30.01F                  
OPA LOCKA      FAIR      84  65  52 S17G23    30.00F                  
MIAMI          PTSUNNY   82  69  64 SE16G23   30.00F                  
WEST KENDALL   PTSUNNY   85  71  63 SE12      29.99F                  
HOMESTEAD      PTSUNNY   82  71  68 SE14      29.99F                  

STATION/POSITION SKY/WX   TEMP    WIND        PRES    WAVE   SWELL
                          AIR SEA DIR/SP/G            HT/PER HT/PER
                          (F)     (DEG/KT/KT) (MB)    (FT/S) (FT/S)
VIRGINIA KEY               78 76  150/ 11/ 14 1015.5F
LAKE WORTH                 77 77  200/ 18/ 21 1016.7F
FOWEY ROCKS                79 76  150/ 18/ 19 1017.1F
SETTLEMENT POINT           77     180/ 14/ 16 1016.3F

$$